Location: Malvern Link
(52.1333°N, 2.3000°W)
Time: 16:06:47
(UTC+00:00)

N. Korean satellite - Visible Passes

Search period start: 22 January 2022 00:00
Search period end: 01 February 2022 00:00
Orbit: 447 x 491 km, 97.3° (Epoch: 21 January)

Date Brightness Start Highest point End Pass type
(mag) Time Alt. Az. Time Alt. Az. Time Alt. Az.
22 Jan 9.2 04:36:54 10° NE 04:39:39 20° E 04:40:04 19° ESE visible
22 Jan 6.9 06:09:31 10° N 06:12:57 40° WNW 06:14:08 30° WSW visible
23 Jan 10.0 04:09:48 10° E 04:10:11 10° E 04:10:35 10° E visible
23 Jan 6.4 05:40:13 10° NNE 05:43:52 85° WNW 05:45:03 42° SSW visible
23 Jan 8.6 07:15:26 10° NW 07:16:24 11° WNW 07:17:21 10° WNW visible
24 Jan 7.6 05:11:09 10° NNE 05:14:40 45° E 05:15:57 31° SSE visible
24 Jan 8.0 06:44:54 10° NNW 06:47:32 19° WNW 06:50:01 11° WSW visible
24 Jan 9.6 17:24:12 10° SW 17:26:49 19° W 17:29:28 10° NW visible
25 Jan 9.0 04:42:23 10° NE 04:45:19 22° E 04:46:52 17° SE visible
25 Jan 7.1 06:15:12 10° N 06:18:34 35° WNW 06:20:56 17° SW visible
26 Jan 9.9 04:14:30 10° ENE 04:15:51 12° E 04:17:12 10° ESE visible
26 Jan 6.4 05:45:49 10° N 05:49:28 74° WNW 05:51:51 20° SSW visible
27 Jan 7.3 05:16:39 10° NNE 05:20:13 52° E 05:22:47 17° S visible
27 Jan 8.1 06:50:35 10° NNW 06:53:02 17° WNW 06:55:29 10° WSW visible
27 Jan 9.7 17:29:57 10° SW 17:32:22 17° W 17:34:50 10° NW visible
28 Jan 8.8 04:47:46 10° NE 04:50:52 25° E 04:53:44 11° SSE visible
28 Jan 7.3 06:20:46 10° N 06:24:02 31° WNW 06:27:16 10° SW visible
29 Jan 9.8 04:19:32 10° ENE 04:21:22 13° E 04:23:12 10° ESE visible
29 Jan 6.5 05:51:18 10° N 05:54:55 64° WNW 05:58:30 10° SSW visible
30 Jan 7.1 05:22:02 10° NNE 05:25:39 60° E 05:29:14 10° S visible
30 Jan 8.2 06:56:10 10° NNW 06:58:23 16° WNW 07:00:35 10° W visible
30 Jan 9.8 17:35:37 10° SW 17:37:48 15° W 17:40:02 10° NW visible
31 Jan 8.6 04:53:03 10° NNE 04:56:16 29° E 04:59:28 10° SSE visible
31 Jan 7.5 06:26:13 10° N 06:29:22 28° WNW 06:32:29 10° SW visible
